Home   Weather   Tilburg   Past weeks

Flag for Netherlands Past Weather in Tilburg, Netherlands — Yesterday and Last 2 Weeks

Now
27 °F

Ice fog.


Feels Like: 20 °F
Forecast: 22 / 32 °F
Wind: 6 mph from East

Location: Gilze-Rijen

Current Time: Jan 17, 2017 at 2:01:47 am

Latest Report: Jan 17, 2017 at 1:25 am


Visibility: 2 mi

Pressure: 30.54 "Hg

Humidity: 93%

Dew Point: 25 °F

Location of TilburgLocation

Past Weather in Tilburg — Graph

°F

Tilburg Temperature Yesterday

Maximum temperature yesterday: 34 °F (at 1:25 am)
Minimum temperature yesterday: 25 °F (at 10:55 pm)
Average temperature yesterday: 31 °F

High & Low Weather Summary for the Past Weeks

 TemperatureHumidityPressure
High50 °F (Jan 11, 12:43 pm)100% (Jan 2, 12:05 am)30.74 "Hg (Jan 2, 12:05 am)
Low19 °F (Jan 6, 12:25 am)56% (Jan 5, 3:25 pm)29.00 "Hg (Jan 12, 11:18 pm)
Average36 °F91%30.10 "Hg
* Reported Jan 2 12:05 am — Jan 17 12:55 am, Tilburg, Weather by CustomWeather, © 2017

Note: Actual official high and low records may vary slightly from our data, if they occured in-between our weather recording intervals... More about our weather records

Advertising

Tilburg Weather History for the Previous 24 Hours

Scroll right to see more
 ConditionsComfort  
Time TempWeatherWind HumidityBarometerVisibility
12:55 am
Tue, Jan 17
27 °FIce fog.6 mph93%30.54 "Hg3 mi
12:25 am28 °FIce fog.6 mph86%30.51 "Hg3 mi
12:16 am28 °FIce fog.6 mph86%30.51 "Hg3 mi
11:55 pm
Mon, Jan 16
28 °FIce fog.6 mph86%30.51 "Hg3 mi
11:25 pm28 °FIce fog.6 mph86%30.51 "Hg3 mi
10:55 pm25 °FIce fog.5 mph93%30.51 "Hg4 mi
10:25 pm27 °FIce fog.3 mph93%30.48 "Hg4 mi
9:55 pm28 °FIce fog.5 mph86%30.48 "Hg4 mi
9:44 pm28 °FIce fog.5 mph86%30.48 "Hg4 mi
9:25 pm28 °FIce fog.6 mph86%30.48 "Hg5 mi
9:02 pm28 °FIce fog.3 mph86%30.48 "Hg4 mi
8:55 pm28 °FIce fog.3 mph86%30.45 "Hg5 mi
8:25 pm28 °FIce fog.6 mph86%30.45 "Hg6 mi
8:17 pm28 °FIce fog.6 mph86%30.45 "Hg6 mi
7:55 pm28 °FIce fog.9 mph86%30.45 "Hg6 mi
7:32 pm28 °FPassing clouds.8 mph86%30.45 "HgN/A
7:02 pm28 °FPassing clouds.6 mph93%30.42 "HgN/A
6:25 pm30 °FIce fog.7 mph86%30.42 "Hg6 mi
5:55 pm30 °FIce fog.5 mph86%30.42 "Hg6 mi
5:25 pm30 °FIce fog.6 mph93%30.39 "Hg4 mi
4:55 pm30 °FIce fog.5 mph93%30.39 "Hg4 mi
4:25 pm30 °FIce fog.7 mph100%30.39 "Hg4 mi
3:55 pm30 °FIce fog.5 mph100%30.39 "Hg3 mi
3:25 pm30 °FIce fog.3 mph100%30.36 "Hg3 mi
2:55 pm30 °FIce fog.5 mph100%30.36 "Hg2 mi
2:25 pm30 °FIce fog.6 mph100%30.36 "Hg1 mi
2:08 pm30 °FIce fog.5 mph100%30.36 "Hg1 mi
1:55 pm30 °FIce fog.5 mph100%30.36 "Hg1 mi
1:25 pm32 °FIce fog.5 mph100%30.36 "Hg2 mi
12:55 pm32 °FIce fog.5 mph93%30.36 "Hg1 mi
12:25 pm32 °FIce fog.5 mph100%30.33 "Hg1 mi
11:55 am32 °FIce fog.3 mph100%30.33 "Hg1 mi
11:44 am30 °FIce fog.5 mph100%30.33 "Hg1 mi
11:33 am32 °FIce fog.6 mph100%30.33 "Hg1 mi
11:10 am32 °FFog.7 mph93%30.33 "Hg1 mi
11:00 am32 °FIce fog.8 mph93%30.33 "Hg4 mi
10:33 am34 °FFog.6 mph93%30.33 "Hg6 mi
10:11 am34 °FFog.2 mph93%30.30 "Hg3 mi
9:55 am32 °FIce fog.2 mph100%30.30 "Hg2 mi
9:41 am32 °FIce fog.2 mph100%30.30 "Hg2 mi
9:25 am32 °FIce fog.3 mph100%30.30 "Hg2 mi
8:56 am32 °FIce fog.3 mph100%30.30 "Hg2 mi
8:55 am32 °FIce fog.3 mph100%30.30 "Hg2 mi
8:39 am32 °FIce fog.5 mph100%30.30 "Hg2 mi
8:25 am32 °FIce fog.2 mph100%30.30 "Hg1 mi
7:55 am30 °FIce fog.3 mph100%30.27 "Hg2 mi
7:37 am30 °FIce fog.3 mph100%30.27 "Hg3 mi
6:56 am32 °FIce fog.5 mph100%30.27 "Hg2 mi
6:34 am32 °FIce fog.3 mph100%30.27 "Hg2 mi
6:16 am32 °FIce fog.2 mph93%30.24 "Hg1 mi
5:43 am32 °FIce fog.2 mph100%30.24 "Hg0 mi
5:11 am32 °FIce fog.2 mph100%30.24 "Hg1 mi
4:55 am32 °FIce fog.2 mph100%30.24 "Hg1 mi
4:32 am32 °FIce fog.2 mph93%30.24 "Hg1 mi
3:59 am32 °FIce fog.3 mph100%30.24 "Hg1 mi
3:37 am32 °FIce fog.2 mph100%30.24 "Hg1 mi
2:55 am32 °FIce fog.1 mph100%30.24 "Hg1 mi
2:36 am32 °FSnow flurries. Mostly cloudy.1 mph100%30.24 "Hg1 mi
Weather by CustomWeather, © 2017

See weather overviewHow to use our weather pages